Year,Month,Day,Hour,Minute,Value (Times are PST for temperature in C)
2006,08,20,00,00,17.90
2006,08,20,00,01,17.90
2006,08,20,00,02,17.90
2006,08,20,00,03,17.80
2006,08,20,00,04,17.70
2006,08,20,00,05,17.60
2006,08,20,00,06,17.60
2006,08,20,00,07,17.50
2006,08,20,00,08,17.50
2006,08,20,00,09,17.50
2006,08,20,00,10,17.50
2006,08,20,00,11,17.50
2006,08,20,00,12,17.40
2006,08,20,00,13,17.40
2006,08,20,00,14,17.40
2006,08,20,00,15,17.40
2006,08,20,00,16,17.30
2006,08,20,00,17,17.30
2006,08,20,00,18,17.40
2006,08,20,00,19,17.40
2006,08,20,00,20,17.40
2006,08,20,00,21,17.40
2006,08,20,00,22,17.40
2006,08,20,00,23,17.40
2006,08,20,00,24,17.40
2006,08,20,00,25,17.30
2006,08,20,00,26,17.30
2006,08,20,00,27,17.30
2006,08,20,00,28,17.30
2006,08,20,00,29,17.20
2006,08,20,00,30,17.20
2006,08,20,00,31,17.10
2006,08,20,00,32,17.10
2006,08,20,00,33,17.00
2006,08,20,00,34,17.00
2006,08,20,00,35,16.90
2006,08,20,00,36,16.90
2006,08,20,00,37,16.80
2006,08,20,00,38,16.80
2006,08,20,00,39,16.70
2006,08,20,00,40,16.60
2006,08,20,00,41,16.50
2006,08,20,00,42,16.40
2006,08,20,00,43,16.40
2006,08,20,00,44,16.30
2006,08,20,00,45,16.20
2006,08,20,00,46,16.20
2006,08,20,00,47,16.10
2006,08,20,00,48,16.00
2006,08,20,00,49,15.90
2006,08,20,00,50,15.80
2006,08,20,00,51,15.80
2006,08,20,00,52,15.70
2006,08,20,00,53,15.60
2006,08,20,00,54,15.60
2006,08,20,00,55,15.50
2006,08,20,00,56,15.50
2006,08,20,00,57,15.40
2006,08,20,00,58,15.30
2006,08,20,00,59,15.30
2006,08,20,01,00,15.20
2006,08,20,01,01,15.20
2006,08,20,01,02,15.10
2006,08,20,01,03,15.00
2006,08,20,01,04,15.00
2006,08,20,01,05,14.90
2006,08,20,01,06,14.90
2006,08,20,01,07,14.80
2006,08,20,01,08,14.80
2006,08,20,01,09,14.70
2006,08,20,01,10,14.70
2006,08,20,01,11,14.60
2006,08,20,01,12,14.60
2006,08,20,01,13,14.50
2006,08,20,01,14,14.50
2006,08,20,01,15,14.40
2006,08,20,01,16,14.40
2006,08,20,01,17,14.30
2006,08,20,01,18,14.30
2006,08,20,01,19,14.20
2006,08,20,01,20,14.20
2006,08,20,01,21,14.20
2006,08,20,01,22,14.20
2006,08,20,01,23,14.20
2006,08,20,01,24,14.20
2006,08,20,01,25,14.20
2006,08,20,01,26,14.20
2006,08,20,01,27,14.10
2006,08,20,01,28,14.10
2006,08,20,01,29,14.10
2006,08,20,01,30,14.10
2006,08,20,01,31,14.00
2006,08,20,01,32,14.00
2006,08,20,01,33,14.00
2006,08,20,01,34,14.00
2006,08,20,01,35,14.00
2006,08,20,01,36,13.90
2006,08,20,01,37,13.90
2006,08,20,01,38,13.90
2006,08,20,01,39,13.90
2006,08,20,01,40,13.80
2006,08,20,01,41,13.80
2006,08,20,01,42,13.80
2006,08,20,01,43,13.70
2006,08,20,01,44,13.70
2006,08,20,01,45,13.70
2006,08,20,01,46,13.70
2006,08,20,01,47,13.70
2006,08,20,01,48,13.70
2006,08,20,01,49,13.70
2006,08,20,01,50,13.60
2006,08,20,01,51,13.60
2006,08,20,01,52,13.60
2006,08,20,01,53,13.60
2006,08,20,01,54,13.60
2006,08,20,01,55,13.50
2006,08,20,01,56,13.50
2006,08,20,01,57,13.50
2006,08,20,01,58,13.50
2006,08,20,01,59,13.50
2006,08,20,02,00,13.50
2006,08,20,02,01,13.40
2006,08,20,02,02,13.40
2006,08,20,02,03,13.40
2006,08,20,02,04,13.40
2006,08,20,02,05,13.40
2006,08,20,02,06,13.40
2006,08,20,02,07,13.40
2006,08,20,02,08,13.40
2006,08,20,02,09,13.40
2006,08,20,02,10,13.30
2006,08,20,02,11,13.30
2006,08,20,02,12,13.30
2006,08,20,02,13,13.30
2006,08,20,02,14,13.30
2006,08,20,02,15,13.30
2006,08,20,02,16,13.30
2006,08,20,02,17,13.30
2006,08,20,02,18,13.20
2006,08,20,02,19,13.20
2006,08,20,02,20,13.20
2006,08,20,02,21,13.10
2006,08,20,02,22,13.10
2006,08,20,02,23,13.10
2006,08,20,02,24,13.00
2006,08,20,02,25,13.00
2006,08,20,02,26,13.00
2006,08,20,02,27,12.90
2006,08,20,02,28,12.90
2006,08,20,02,29,12.90
2006,08,20,02,30,12.80
2006,08,20,02,31,12.80
2006,08,20,02,32,12.80
2006,08,20,02,33,12.80
2006,08,20,02,34,12.70
2006,08,20,02,35,12.70
2006,08,20,02,36,12.70
2006,08,20,02,37,12.60
2006,08,20,02,38,12.60
2006,08,20,02,39,12.60
2006,08,20,02,40,12.50
2006,08,20,02,41,12.50
2006,08,20,02,42,12.50
2006,08,20,02,43,12.50
2006,08,20,02,44,12.40
2006,08,20,02,45,12.40
2006,08,20,02,46,12.40
2006,08,20,02,47,12.30
2006,08,20,02,48,12.30
2006,08,20,02,49,12.30
2006,08,20,02,50,12.30
2006,08,20,02,51,12.30
2006,08,20,02,52,12.30
2006,08,20,02,53,12.30
2006,08,20,02,54,12.20
2006,08,20,02,55,12.20
2006,08,20,02,56,12.20
2006,08,20,02,57,12.20
2006,08,20,02,58,12.20
2006,08,20,02,59,12.10
2006,08,20,03,00,12.10
2006,08,20,03,01,12.10
2006,08,20,03,02,12.10
2006,08,20,03,03,12.10
2006,08,20,03,04,12.10
2006,08,20,03,05,12.10
2006,08,20,03,06,12.10
2006,08,20,03,07,12.10
2006,08,20,03,08,12.10
2006,08,20,03,09,12.10
2006,08,20,03,10,12.10
2006,08,20,03,11,12.00
2006,08,20,03,12,12.00
2006,08,20,03,13,12.00
2006,08,20,03,14,12.00
2006,08,20,03,15,12.00
2006,08,20,03,16,12.00
2006,08,20,03,17,12.00
2006,08,20,03,18,12.00
2006,08,20,03,19,12.00
2006,08,20,03,20,12.00
2006,08,20,03,21,11.90
2006,08,20,03,22,11.90
2006,08,20,03,23,11.90
2006,08,20,03,24,11.90
2006,08,20,03,25,11.90
2006,08,20,03,26,11.90
2006,08,20,03,27,11.90
2006,08,20,03,28,11.90
2006,08,20,03,29,11.90
2006,08,20,03,30,11.90
2006,08,20,03,31,11.90
2006,08,20,03,32,11.80
2006,08,20,03,33,11.80
2006,08,20,03,34,11.80
2006,08,20,03,35,11.80
2006,08,20,03,36,11.80
2006,08,20,03,37,11.80
2006,08,20,03,38,11.80
2006,08,20,03,39,11.80
2006,08,20,03,40,11.80
2006,08,20,03,41,11.80
2006,08,20,03,42,11.80
2006,08,20,03,43,11.80
2006,08,20,03,44,11.70
2006,08,20,03,45,11.70
2006,08,20,03,46,11.70
2006,08,20,03,47,11.70
2006,08,20,03,48,11.60
2006,08,20,03,49,11.60
2006,08,20,03,50,11.60
2006,08,20,03,51,11.60
2006,08,20,03,52,11.60
2006,08,20,03,53,11.60
2006,08,20,03,54,11.60
2006,08,20,03,55,11.40
2006,08,20,03,56,11.40
2006,08,20,03,57,11.40
2006,08,20,03,58,11.40
2006,08,20,03,59,11.40
2006,08,20,04,00,11.40
2006,08,20,04,01,11.40
2006,08,20,04,02,11.40
2006,08,20,04,03,11.40
2006,08,20,04,04,11.40
2006,08,20,04,05,11.40
2006,08,20,04,06,11.40
2006,08,20,04,07,11.40
2006,08,20,04,08,11.40
2006,08,20,04,09,11.30
2006,08,20,04,10,11.30
2006,08,20,04,11,11.30
2006,08,20,04,12,11.30
2006,08,20,04,13,11.30
2006,08,20,04,14,11.30
2006,08,20,04,15,11.30
2006,08,20,04,16,11.30
2006,08,20,04,17,11.30
2006,08,20,04,18,11.30
2006,08,20,04,19,11.30
2006,08,20,04,20,11.30
2006,08,20,04,21,11.30
2006,08,20,04,22,11.30
2006,08,20,04,23,11.30
2006,08,20,04,24,11.30
2006,08,20,04,25,11.30
2006,08,20,04,26,11.30
2006,08,20,04,27,11.30
2006,08,20,04,28,11.30
2006,08,20,04,29,11.40
2006,08,20,04,30,11.40
2006,08,20,04,31,11.40
2006,08,20,04,32,11.40
2006,08,20,04,33,11.40
2006,08,20,04,34,11.40
2006,08,20,04,35,11.40
2006,08,20,04,36,11.40
2006,08,20,04,37,11.40
2006,08,20,04,38,11.40
2006,08,20,04,39,11.40
2006,08,20,04,40,11.40
2006,08,20,04,41,11.40
2006,08,20,04,42,11.40
2006,08,20,04,43,11.40
2006,08,20,04,44,11.40
2006,08,20,04,45,11.40
2006,08,20,04,46,11.40
2006,08,20,04,47,11.40
2006,08,20,04,48,11.30
2006,08,20,04,49,11.30
2006,08,20,04,50,11.30
2006,08,20,04,51,11.30
2006,08,20,04,52,11.30
2006,08,20,04,53,11.30
2006,08,20,04,54,11.30
2006,08,20,04,55,11.30
2006,08,20,04,56,11.30
2006,08,20,04,57,11.20
2006,08,20,04,58,11.20
2006,08,20,04,59,11.20
2006,08,20,05,00,11.20
2006,08,20,05,01,11.20
2006,08,20,05,02,11.20
2006,08,20,05,03,11.20
2006,08,20,05,04,11.20
2006,08,20,05,05,11.10
2006,08,20,05,06,11.10
2006,08,20,05,07,11.10
2006,08,20,05,08,11.10
2006,08,20,05,09,11.10
2006,08,20,05,10,11.10
2006,08,20,05,11,11.10
2006,08,20,05,12,11.10
2006,08,20,05,13,11.10
2006,08,20,05,14,11.10
2006,08,20,05,15,11.00
2006,08,20,05,16,10.90
2006,08,20,05,17,10.90
2006,08,20,05,18,10.90
2006,08,20,05,19,10.90
2006,08,20,05,20,10.90
2006,08,20,05,21,10.90
2006,08,20,05,22,10.90
2006,08,20,05,23,10.90
2006,08,20,05,24,10.90
2006,08,20,05,25,10.90
2006,08,20,05,26,10.90
2006,08,20,05,27,10.90
2006,08,20,05,28,10.90
2006,08,20,05,29,10.90
2006,08,20,05,30,10.90
2006,08,20,05,31,10.90
2006,08,20,05,32,10.90
2006,08,20,05,33,10.90
2006,08,20,05,34,10.80
2006,08,20,05,35,10.80
2006,08,20,05,36,10.80
2006,08,20,05,37,10.80
2006,08,20,05,38,10.80
2006,08,20,05,39,10.70
2006,08,20,05,40,10.70
2006,08,20,05,41,10.70
2006,08,20,05,42,10.70
2006,08,20,05,43,10.70
2006,08,20,05,44,10.70
2006,08,20,05,45,10.60
2006,08,20,05,46,10.60
2006,08,20,05,47,10.60
2006,08,20,05,48,10.60
2006,08,20,05,49,10.60
2006,08,20,05,50,10.60
2006,08,20,05,51,10.60
2006,08,20,05,52,10.60
2006,08,20,05,53,10.60
2006,08,20,05,54,10.60
2006,08,20,05,55,10.60
2006,08,20,05,56,10.70
2006,08,20,05,57,10.70
2006,08,20,05,58,10.70
2006,08,20,05,59,10.70
2006,08,20,06,00,10.70
2006,08,20,06,01,10.70
2006,08,20,06,02,10.80
2006,08,20,06,03,10.80
2006,08,20,06,04,10.80
2006,08,20,06,05,10.80
2006,08,20,06,06,10.80
2006,08,20,06,07,10.80
2006,08,20,06,08,10.80
2006,08,20,06,09,10.80
2006,08,20,06,10,10.80
2006,08,20,06,11,10.80
2006,08,20,06,12,10.80
2006,08,20,06,13,10.80
2006,08,20,06,14,10.80
2006,08,20,06,15,10.80
2006,08,20,06,16,10.80
2006,08,20,06,17,10.80
2006,08,20,06,18,10.80
2006,08,20,06,19,10.80
2006,08,20,06,20,10.80
2006,08,20,06,21,10.70
2006,08,20,06,22,10.70
2006,08,20,06,23,10.70
2006,08,20,06,24,10.70
2006,08,20,06,25,10.70
2006,08,20,06,26,10.70
2006,08,20,06,27,10.70
2006,08,20,06,28,10.70
2006,08,20,06,29,10.70
2006,08,20,06,30,10.70
2006,08,20,06,31,10.70
2006,08,20,06,32,10.70
2006,08,20,06,33,10.70
2006,08,20,06,34,10.70
2006,08,20,06,35,10.70
2006,08,20,06,36,10.70
2006,08,20,06,37,10.70
2006,08,20,06,38,10.70
2006,08,20,06,39,10.70
2006,08,20,06,40,10.80
2006,08,20,06,41,10.80
2006,08,20,06,42,10.80
2006,08,20,06,43,10.80
2006,08,20,06,44,10.80
2006,08,20,06,45,10.80
2006,08,20,06,46,10.80
2006,08,20,06,47,10.80
2006,08,20,06,48,10.90
2006,08,20,06,49,10.90
2006,08,20,06,50,10.90
2006,08,20,06,51,10.90
2006,08,20,06,52,10.90
2006,08,20,06,53,10.90
2006,08,20,06,54,10.90
2006,08,20,06,55,10.90
2006,08,20,06,56,10.90
2006,08,20,06,57,10.90
2006,08,20,06,58,10.90
2006,08,20,06,59,10.90
2006,08,20,07,00,10.90
2006,08,20,07,01,10.90
2006,08,20,07,02,10.90
2006,08,20,07,03,10.90
2006,08,20,07,04,10.90
2006,08,20,07,05,10.90
2006,08,20,07,06,10.90
2006,08,20,07,07,10.90
2006,08,20,07,08,11.00
2006,08,20,07,09,11.10
2006,08,20,07,10,11.10
2006,08,20,07,11,11.10
2006,08,20,07,12,11.10
2006,08,20,07,13,11.20
2006,08,20,07,14,11.20
2006,08,20,07,15,11.30
2006,08,20,07,16,11.30
2006,08,20,07,17,11.40
2006,08,20,07,18,11.40
2006,08,20,07,19,11.40
2006,08,20,07,20,11.50
2006,08,20,07,21,11.60
2006,08,20,07,22,11.60
2006,08,20,07,23,11.60
2006,08,20,07,24,11.60
2006,08,20,07,25,11.60
2006,08,20,07,26,11.60
2006,08,20,07,27,11.60
2006,08,20,07,28,11.60
2006,08,20,07,29,11.70
2006,08,20,07,30,11.70
2006,08,20,07,31,11.70
2006,08,20,07,32,11.80
2006,08,20,07,33,11.80
2006,08,20,07,34,11.80
2006,08,20,07,35,11.80
2006,08,20,07,36,11.80
2006,08,20,07,37,11.80
2006,08,20,07,38,11.90
2006,08,20,07,39,11.90
2006,08,20,07,40,12.00
2006,08,20,07,41,12.00
2006,08,20,07,42,12.10
2006,08,20,07,43,12.10
2006,08,20,07,44,12.20
2006,08,20,07,45,12.20
2006,08,20,07,46,12.30
2006,08,20,07,47,12.30
2006,08,20,07,48,12.30
2006,08,20,07,49,12.40
2006,08,20,07,50,12.50
2006,08,20,07,51,12.50
2006,08,20,07,52,12.60
2006,08,20,07,53,12.70
2006,08,20,07,54,12.80
2006,08,20,07,55,12.80
2006,08,20,07,56,12.90
2006,08,20,07,57,13.00
2006,08,20,07,58,13.10
2006,08,20,07,59,13.20
2006,08,20,08,00,13.30
2006,08,20,08,01,13.30
2006,08,20,08,02,13.40
2006,08,20,08,03,13.60
2006,08,20,08,04,13.60
2006,08,20,08,05,13.70
2006,08,20,08,06,13.80
2006,08,20,08,07,13.90
2006,08,20,08,08,13.90
2006,08,20,08,09,14.00
2006,08,20,08,10,14.20
2006,08,20,08,11,14.20
2006,08,20,08,12,14.40
2006,08,20,08,13,14.60
2006,08,20,08,14,14.70
2006,08,20,08,15,14.80
2006,08,20,08,16,15.00
2006,08,20,08,17,15.20
2006,08,20,08,18,15.30
2006,08,20,08,19,15.40
2006,08,20,08,20,15.60
2006,08,20,08,21,15.70
2006,08,20,08,22,15.80
2006,08,20,08,23,15.80
2006,08,20,08,24,15.90
2006,08,20,08,25,16.00
2006,08,20,08,26,16.10
2006,08,20,08,27,16.10
2006,08,20,08,28,16.20
2006,08,20,08,29,16.20
2006,08,20,08,30,16.20
2006,08,20,08,31,16.30
2006,08,20,08,32,16.30
2006,08,20,08,33,16.30
2006,08,20,08,34,16.40
2006,08,20,08,35,16.40
2006,08,20,08,36,16.40
2006,08,20,08,37,16.40
2006,08,20,08,38,16.40
2006,08,20,08,39,16.50
2006,08,20,08,40,16.60
2006,08,20,08,41,16.70
2006,08,20,08,42,16.70
2006,08,20,08,43,16.70
2006,08,20,08,44,16.80
2006,08,20,08,45,16.90
2006,08,20,08,46,16.90
2006,08,20,08,47,16.90
2006,08,20,08,48,17.00
2006,08,20,08,49,17.00
2006,08,20,08,50,17.00
2006,08,20,08,51,17.00
2006,08,20,08,52,17.00
2006,08,20,08,53,17.00
2006,08,20,08,54,17.00
2006,08,20,08,55,17.00
2006,08,20,08,56,17.00
2006,08,20,08,57,17.00
2006,08,20,08,58,17.00
2006,08,20,08,59,17.00
2006,08,20,09,00,17.00
2006,08,20,09,01,17.10
2006,08,20,09,02,17.00
2006,08,20,09,03,17.00
2006,08,20,09,04,17.00
2006,08,20,09,05,17.00
2006,08,20,09,06,17.00
2006,08,20,09,07,17.00
2006,08,20,09,08,17.00
2006,08,20,09,09,17.00
2006,08,20,09,10,17.10
2006,08,20,09,11,17.10
2006,08,20,09,12,17.10
2006,08,20,09,13,17.10
2006,08,20,09,14,17.10
2006,08,20,09,15,17.10
2006,08,20,09,16,17.10
2006,08,20,09,17,17.10
2006,08,20,09,18,17.10
2006,08,20,09,19,17.10
2006,08,20,09,20,17.10
2006,08,20,09,21,17.10
2006,08,20,09,22,17.10
2006,08,20,09,23,17.10
2006,08,20,09,24,17.10
2006,08,20,09,25,17.10
2006,08,20,09,26,17.00
2006,08,20,09,27,17.00
2006,08,20,09,28,17.00
2006,08,20,09,29,17.00
2006,08,20,09,30,17.00
2006,08,20,09,31,17.00
2006,08,20,09,32,17.00
2006,08,20,09,33,17.00
2006,08,20,09,34,17.00
2006,08,20,09,35,17.10
2006,08,20,09,36,17.10
2006,08,20,09,37,17.10
2006,08,20,09,38,17.10
2006,08,20,09,39,17.10
2006,08,20,09,40,17.10
2006,08,20,09,41,17.20
2006,08,20,09,42,17.20
2006,08,20,09,43,17.20
2006,08,20,09,44,17.30
2006,08,20,09,45,17.30
2006,08,20,09,46,17.30
2006,08,20,09,47,17.30
2006,08,20,09,48,17.30
2006,08,20,09,49,17.30
2006,08,20,09,50,17.30
2006,08,20,09,51,17.30
2006,08,20,09,52,17.30
2006,08,20,09,53,17.30
2006,08,20,09,54,17.30
2006,08,20,09,55,17.30
2006,08,20,09,56,17.30
2006,08,20,09,57,17.40
2006,08,20,09,58,17.40
2006,08,20,09,59,17.30
2006,08,20,10,00,17.40
2006,08,20,10,01,17.40
2006,08,20,10,02,17.40
2006,08,20,10,03,17.50
2006,08,20,10,04,17.50
2006,08,20,10,05,17.60
2006,08,20,10,06,17.70
2006,08,20,10,07,17.70
2006,08,20,10,08,17.80
2006,08,20,10,09,17.80
2006,08,20,10,10,17.80
2006,08,20,10,11,17.90
2006,08,20,10,12,17.90
2006,08,20,10,13,17.90
2006,08,20,10,14,17.90
2006,08,20,10,15,17.90
2006,08,20,10,16,17.90
2006,08,20,10,17,17.90
2006,08,20,10,18,17.90
2006,08,20,10,19,17.90
2006,08,20,10,20,17.90
2006,08,20,10,21,17.90
2006,08,20,10,22,17.90
2006,08,20,10,23,17.90
2006,08,20,10,24,17.90
2006,08,20,10,25,17.90
2006,08,20,10,26,17.90
2006,08,20,10,27,17.90
2006,08,20,10,28,18.00
2006,08,20,10,29,18.10
2006,08,20,10,30,18.10
2006,08,20,10,31,18.20
2006,08,20,10,32,18.20
2006,08,20,10,33,18.30
2006,08,20,10,34,18.40
2006,08,20,10,35,18.50
2006,08,20,10,36,18.50
2006,08,20,10,37,18.50
2006,08,20,10,38,18.50
2006,08,20,10,39,18.50
2006,08,20,10,40,18.30
2006,08,20,10,41,18.30
2006,08,20,10,42,18.40
2006,08,20,10,43,18.40
2006,08,20,10,44,18.40
2006,08,20,10,45,18.40
2006,08,20,10,46,18.40
2006,08,20,10,47,18.30
2006,08,20,10,48,18.20
2006,08,20,10,49,18.20
2006,08,20,10,50,18.20
2006,08,20,10,51,18.20
2006,08,20,10,52,18.20
2006,08,20,10,53,18.20
2006,08,20,10,54,18.20
2006,08,20,10,55,18.20
2006,08,20,10,56,18.20
2006,08,20,10,57,18.20
2006,08,20,10,58,18.20
2006,08,20,10,59,18.10
2006,08,20,11,00,18.10
2006,08,20,11,01,18.10
2006,08,20,11,02,18.10
2006,08,20,11,03,18.20
2006,08,20,11,04,18.20
2006,08,20,11,05,18.30
2006,08,20,11,06,18.40
2006,08,20,11,07,18.40
2006,08,20,11,08,18.50
2006,08,20,11,09,18.40
2006,08,20,11,10,18.40
2006,08,20,11,11,18.20
2006,08,20,11,12,18.20
2006,08,20,11,13,18.10
2006,08,20,11,14,17.90
2006,08,20,11,15,17.90
2006,08,20,11,16,17.90
2006,08,20,11,17,17.90
2006,08,20,11,18,18.00
2006,08,20,11,19,18.10
2006,08,20,11,20,18.10
2006,08,20,11,21,18.10
2006,08,20,11,22,18.10
2006,08,20,11,23,18.20
2006,08,20,11,24,18.20
2006,08,20,11,25,18.20
2006,08,20,11,26,18.20
2006,08,20,11,27,18.20
2006,08,20,11,28,18.30
2006,08,20,11,29,18.40
2006,08,20,11,30,18.50
2006,08,20,11,31,18.70
2006,08,20,11,32,18.90
2006,08,20,11,33,19.00
2006,08,20,11,34,19.10
2006,08,20,11,35,19.20
2006,08,20,11,36,19.30
2006,08,20,11,37,19.40
2006,08,20,11,38,19.50
2006,08,20,11,39,19.50
2006,08,20,11,40,19.60
2006,08,20,11,41,19.60
2006,08,20,11,42,19.70
2006,08,20,11,43,19.80
2006,08,20,11,44,19.90
2006,08,20,11,45,19.90
2006,08,20,11,46,19.90
2006,08,20,11,47,19.90
2006,08,20,11,48,19.90
2006,08,20,11,49,19.90
2006,08,20,11,50,19.90
2006,08,20,11,51,19.90
2006,08,20,11,52,19.80
2006,08,20,11,53,19.70
2006,08,20,11,54,19.70
2006,08,20,11,55,19.70
2006,08,20,11,56,19.70
2006,08,20,11,57,19.70
2006,08,20,11,58,19.80
2006,08,20,11,59,19.90
2006,08,20,12,00,19.90
2006,08,20,12,01,19.80
2006,08,20,12,02,19.70
2006,08,20,12,03,19.60
2006,08,20,12,04,19.60
2006,08,20,12,05,19.70
2006,08,20,12,06,19.70
2006,08,20,12,07,19.80
2006,08,20,12,08,19.80
2006,08,20,12,09,19.80
2006,08,20,12,10,19.90
2006,08,20,12,11,19.90
2006,08,20,12,12,19.90
2006,08,20,12,13,19.90
2006,08,20,12,14,19.90
2006,08,20,12,15,19.90
2006,08,20,12,16,19.90
2006,08,20,12,17,19.90
2006,08,20,12,18,19.90
2006,08,20,12,19,19.90
2006,08,20,12,20,19.80
2006,08,20,12,21,19.70
2006,08,20,12,22,19.70
2006,08,20,12,23,19.60
2006,08,20,12,24,19.60
2006,08,20,12,25,19.60
2006,08,20,12,26,19.60
2006,08,20,12,27,19.70
2006,08,20,12,28,19.70
2006,08,20,12,29,19.70
2006,08,20,12,30,19.70
2006,08,20,12,31,19.70
2006,08,20,12,32,19.70
2006,08,20,12,33,19.60
2006,08,20,12,34,19.60
2006,08,20,12,35,19.60
2006,08,20,12,36,19.70
2006,08,20,12,37,19.70
2006,08,20,12,38,19.80
2006,08,20,12,39,19.80
2006,08,20,12,40,19.90
2006,08,20,12,41,20.00
2006,08,20,12,42,20.10
2006,08,20,12,43,20.10
2006,08,20,12,44,20.10
2006,08,20,12,45,20.20
2006,08,20,12,46,20.40
2006,08,20,12,47,20.50
2006,08,20,12,48,20.70
2006,08,20,12,49,20.80
2006,08,20,12,50,21.00
2006,08,20,12,51,21.00
2006,08,20,12,52,21.10
2006,08,20,12,53,21.20
2006,08,20,12,54,21.20
2006,08,20,12,55,21.30
2006,08,20,12,56,21.30
2006,08,20,12,57,21.30
2006,08,20,12,58,21.30
2006,08,20,12,59,21.20
2006,08,20,13,00,21.20
2006,08,20,13,01,21.10
2006,08,20,13,02,21.20
2006,08,20,13,03,21.20
2006,08,20,13,04,21.30
2006,08,20,13,05,21.30
2006,08,20,13,06,21.40
2006,08,20,13,07,21.50
2006,08,20,13,08,21.60
2006,08,20,13,09,21.70
2006,08,20,13,10,21.80
2006,08,20,13,11,21.90
2006,08,20,13,12,22.10
2006,08,20,13,13,22.20
2006,08,20,13,14,22.30
2006,08,20,13,15,22.30
2006,08,20,13,16,22.30
2006,08,20,13,17,22.30
2006,08,20,13,18,22.30
2006,08,20,13,19,22.20
2006,08,20,13,20,22.20
2006,08,20,13,21,22.10
2006,08,20,13,22,22.00
2006,08,20,13,23,22.00
2006,08,20,13,24,21.90
2006,08,20,13,25,21.90
2006,08,20,13,26,21.90
2006,08,20,13,27,21.90
2006,08,20,13,28,22.00
2006,08,20,13,29,22.10
2006,08,20,13,30,22.10
2006,08,20,13,31,22.20
2006,08,20,13,32,22.30
2006,08,20,13,33,22.40
2006,08,20,13,34,22.60
2006,08,20,13,35,22.60
2006,08,20,13,36,22.70
2006,08,20,13,37,22.70
2006,08,20,13,38,22.60
2006,08,20,13,39,22.60
2006,08,20,13,40,22.40
2006,08,20,13,41,22.40
2006,08,20,13,42,22.50
2006,08,20,13,43,22.50
2006,08,20,13,44,22.60
2006,08,20,13,45,22.60
2006,08,20,13,46,22.60
2006,08,20,13,47,22.60
2006,08,20,13,48,22.60
2006,08,20,13,49,22.60
2006,08,20,13,50,22.50
2006,08,20,13,51,22.40
2006,08,20,13,52,22.30
2006,08,20,13,53,22.30
2006,08,20,13,54,22.30
2006,08,20,13,55,22.40
2006,08,20,13,56,22.40
2006,08,20,13,57,22.50
2006,08,20,13,58,22.60
2006,08,20,13,59,22.70
2006,08,20,14,00,22.80
2006,08,20,14,01,22.80
2006,08,20,14,02,22.90
2006,08,20,14,03,22.90
2006,08,20,14,04,22.90
2006,08,20,14,05,22.90
2006,08,20,14,06,22.90
2006,08,20,14,07,22.90
2006,08,20,14,08,22.80
2006,08,20,14,09,22.80
2006,08,20,14,10,22.80
2006,08,20,14,11,22.80
2006,08,20,14,12,22.90
2006,08,20,14,13,22.90
2006,08,20,14,14,23.00
2006,08,20,14,15,23.10
2006,08,20,14,16,23.20
2006,08,20,14,17,23.30
2006,08,20,14,18,23.30
2006,08,20,14,19,23.30
2006,08,20,14,20,23.30
2006,08,20,14,21,23.20
2006,08,20,14,22,23.20
2006,08,20,14,23,23.20
2006,08,20,14,24,23.20
2006,08,20,14,25,23.20
2006,08,20,14,26,23.30
2006,08,20,14,27,23.40
2006,08,20,14,28,23.60
2006,08,20,14,29,23.70
2006,08,20,14,30,23.80
2006,08,20,14,31,23.90
2006,08,20,14,32,24.10
2006,08,20,14,33,24.10
2006,08,20,14,34,24.10
2006,08,20,14,35,24.10
2006,08,20,14,36,24.10
2006,08,20,14,37,24.10
2006,08,20,14,38,24.10
2006,08,20,14,39,24.10
2006,08,20,14,40,24.00
2006,08,20,14,41,23.90
2006,08,20,14,42,23.90
2006,08,20,14,43,23.90
2006,08,20,14,44,23.80
2006,08,20,14,45,23.80
2006,08,20,14,46,23.70
2006,08,20,14,47,23.70
2006,08,20,14,48,23.70
2006,08,20,14,49,23.70
2006,08,20,14,50,23.70
2006,08,20,14,51,23.70
2006,08,20,14,52,23.70
2006,08,20,14,53,23.70
2006,08,20,14,54,23.70
2006,08,20,14,55,23.70
2006,08,20,14,56,23.70
2006,08,20,14,57,23.60
2006,08,20,14,58,23.40
2006,08,20,14,59,23.30
2006,08,20,15,00,23.30
2006,08,20,15,01,23.30
2006,08,20,15,02,23.30
2006,08,20,15,03,23.30
2006,08,20,15,04,23.30
2006,08,20,15,05,23.40
2006,08,20,15,06,23.50
2006,08,20,15,07,23.60
2006,08,20,15,08,23.70
2006,08,20,15,09,23.70
2006,08,20,15,10,23.80
2006,08,20,15,11,23.80
2006,08,20,15,12,23.80
2006,08,20,15,13,23.80
2006,08,20,15,14,23.80
2006,08,20,15,15,23.80
2006,08,20,15,16,23.90
2006,08,20,15,17,23.90
2006,08,20,15,18,24.00
2006,08,20,15,19,24.10
2006,08,20,15,20,24.10
2006,08,20,15,21,24.20
2006,08,20,15,22,24.20
2006,08,20,15,23,24.20
2006,08,20,15,24,24.30
2006,08,20,15,25,24.30
2006,08,20,15,26,24.40
2006,08,20,15,27,24.40
2006,08,20,15,28,24.50
2006,08,20,15,29,24.50
2006,08,20,15,30,24.60
2006,08,20,15,31,24.60
2006,08,20,15,32,24.50
2006,08,20,15,33,24.40
2006,08,20,15,34,24.30
2006,08,20,15,35,24.30
2006,08,20,15,36,24.30
2006,08,20,15,37,24.30
2006,08,20,15,38,24.30
2006,08,20,15,39,24.30
2006,08,20,15,40,24.20
2006,08,20,15,41,24.20
2006,08,20,15,42,24.20
2006,08,20,15,43,24.30
2006,08,20,15,44,24.40
2006,08,20,15,45,24.50
2006,08,20,15,46,24.50
2006,08,20,15,47,24.60
2006,08,20,15,48,24.70
2006,08,20,15,49,24.70
2006,08,20,15,50,24.80
2006,08,20,15,51,24.80
2006,08,20,15,52,24.90
2006,08,20,15,53,25.00
2006,08,20,15,54,25.10
2006,08,20,15,55,25.10
2006,08,20,15,56,25.20
2006,08,20,15,57,25.30
2006,08,20,15,58,25.40
2006,08,20,15,59,25.40
2006,08,20,16,00,25.50
2006,08,20,16,01,25.40
2006,08,20,16,02,25.20
2006,08,20,16,03,25.00
2006,08,20,16,04,24.90
2006,08,20,16,05,24.80
2006,08,20,16,06,24.80
2006,08,20,16,07,24.80
2006,08,20,16,08,24.80
2006,08,20,16,09,24.80
2006,08,20,16,10,24.70
2006,08,20,16,11,24.60
2006,08,20,16,12,24.50
2006,08,20,16,13,24.50
2006,08,20,16,14,24.60
2006,08,20,16,15,24.70
2006,08,20,16,16,24.80
2006,08,20,16,17,24.90
2006,08,20,16,18,25.10
2006,08,20,16,19,25.20
2006,08,20,16,20,25.40
2006,08,20,16,21,25.50
2006,08,20,16,22,25.70
2006,08,20,16,23,25.80
2006,08,20,16,24,25.90
2006,08,20,16,25,26.00
2006,08,20,16,26,26.20
2006,08,20,16,27,26.30
2006,08,20,16,28,26.30
2006,08,20,16,29,26.30
2006,08,20,16,30,26.30
2006,08,20,16,31,26.30
2006,08,20,16,32,26.20
2006,08,20,16,33,26.20
2006,08,20,16,34,26.10
2006,08,20,16,35,26.00
2006,08,20,16,36,26.00
2006,08,20,16,37,26.00
2006,08,20,16,38,25.90
2006,08,20,16,39,25.90
2006,08,20,16,40,25.80
2006,08,20,16,41,25.80
2006,08,20,16,42,25.70
2006,08,20,16,43,25.70
2006,08,20,16,44,25.70
2006,08,20,16,45,25.70
2006,08,20,16,46,25.60
2006,08,20,16,47,25.50
2006,08,20,16,48,25.50
2006,08,20,16,49,25.40
2006,08,20,16,50,25.30
2006,08,20,16,51,25.30
2006,08,20,16,52,25.30
2006,08,20,16,53,25.30
2006,08,20,16,54,25.30
2006,08,20,16,55,25.20
2006,08,20,16,56,25.20
2006,08,20,16,57,25.20
2006,08,20,16,58,25.20
2006,08,20,16,59,25.10
2006,08,20,17,00,25.10
2006,08,20,17,01,25.10
2006,08,20,17,02,25.10
2006,08,20,17,03,25.20
2006,08,20,17,04,25.20
2006,08,20,17,05,25.20
2006,08,20,17,06,25.10
2006,08,20,17,07,24.90
2006,08,20,17,08,24.90
2006,08,20,17,09,24.80
2006,08,20,17,10,24.70
2006,08,20,17,11,24.70
2006,08,20,17,12,24.70
2006,08,20,17,13,24.80
2006,08,20,17,14,24.80
2006,08,20,17,15,24.90
2006,08,20,17,16,24.90
2006,08,20,17,17,24.90
2006,08,20,17,18,24.90
2006,08,20,17,19,24.90